Probability
0 6 16 23 23 26 29 23 32 35 35 32 39 35 39 35 39 55 52 48 52 48 58 68 71 71 65 74 77 81 84 87 87 77 77 81 81 74 68 61 58 55 55
6 10 16 26 23 19 26 32 23 29 35 35 32 35 45 39 39 45 42 45 52 45 48 68 74 65 58 77 77 77 77 77 77 71 71 58 71 68 68 58 58 48 55
6 10 13 23 23 19 23 16 19 23 32 32 29 35 39 32 29 35 29 39 48 39 39 55 45 58 65 71 71 65 74 74 68 65 48 26 45 65 55 55 52 58 55
6 6 6 16 16 19 19 16 19 19 23 23 26 23 32 29 26 32 29 35 39 39 42 45 42 52 52 55 61 58 65 65 58 32 6 16 19 55 55 52 55 39 52
6 6 6 16 13 16 19 26 23 16 16 19 23 19 26 26 32 29 32 32 35 32 32 32 42 48 39 48 45 48 45 42 32 6 3 3 6 35 35 32 42 42 42
6 3 6 6 10 10 10 16 10 13 13 13 23 29 29 23 23 26 32 26 29 26 29 29 35 32 32 29 39 42 32 26 10 0 3 6 10 32 35 39 35 39 32
0 3 3 10 10 13 13 10 6 10 10 10 19 16 26 26 23 19 19 26 29 29 29 26 26 32 35 35 29 29 23 23 0 0 0 6 19 39 32 29 29 26 29
0 3 3 6 10 16 10 10 6 6 10 10 13 16 19 23 26 23 13 16 23 23 23 19 19 26 26 29 29 29 16 6 0 0 3 3 19 29 26 29 26 23 29
3 3 3 3 3 13 10 10 10 6 6 6 13 13 16 16 19 16 10 16 16 19 19 13 13 16 26 26 26 26 6 3 0 0 0 6 19 23 19 26 29 29 16
3 3 3 3 3 3 3 6 6 6 3 6 13 16 10 6 10 23 6 13 6 3 10 10 13 16 13 13 10 10 3 0 0 0 0 10 23 26 19 16 19 19 23
3 3 3 3 3 3 3 3 3 3 3 3 3 3 0 0 0 0 3 16 10 0 0 3 10 10 6 10 6 3 0 0 0 0 0 16 16 16 13 13 13 16 13
0 3 3 3 3 3 3 3 3 3 0 0 0 0 0 0 0 0 3 3 6 3 0 3 3 0 0 0 0 0 0 0 0 0 3 13 13 10 6 6 3 0 0
0 0 0 3 3 3 0 0 0 0 0 0 0 0 0 0 0 0 0 0 0 0 0 3 0 0 0 0 0 0 0 0 0 0 3 16 13 3 3 3 6 0 3
0 0 0 0 0 0 0 0 0 0 0 0 0 0 0 0 0 0 0 0 0 0 0 0 0 0 0 0 0 0 0 0 0 0 0 13 19 6 6 6 3 6 3
0 0 0 0 0 0 0 0 0 0 0 0 0 0 0 0 0 0 0 0 0 0 0 0 0 0 0 0 0 0 0 0 0 0 0 3 6 10 10 6 3 6 10
0 0 0 0 0 0 0 0 0 0 0 0 0 0 0 0 0 0 0 0 0 0 0 0 0 0 0 0 0 0 0 0 0 0 0 0 6 10 10 6 6 6 10
0 0 0 0 0 0 0 0 0 0 0 0 0 0 0 0 0 0 0 0 0 0 0 0 0 0 0 0 0 0 0 0 0 0 0 0 0 3 6 10 6 13 10
0 0 0 0 0 0 0 0 0 0 0 0 0 0 0 0 0 0 0 0 0 0 0 0 0 0 0 0 0 0 0 0 0 0 0 0 0 0 0 3 6 13 6
0 0 0 0 0 0 0 0 0 0 0 0 0 0 0 0 0 0 0 0 0 0 0 0 0 0 0 0 0 0 0 0 0 0 0 0 0 0 0 0 0 3 13
0 0 0 0 0 0 0 0 0 0 0 0 0 0 0 0 0 0 0 0 0 0 0 0 0 0 0 0 0 0 0 0 0 0 0 0 0 0 0 0 0 0 0
0 0 0 0 0 0 0 0 0 0 0 0 0 0 0 0 0 0 0 0 0 0 0 0 0 0 0 0 0 0 0 0 0 0 0 0 0 0 0 0 0 0 0
0 0 0 0 0 0 0 0 0 0 0 0 0 0 0 0 0 0 0 0 0 0 0 0 0 0 0 0 0 0 0 0 0 0 0 0 0 0 0 0 0 0 0
0 0 0 0 0 0 0 0 0 0 0 0 0 0 0 0 0 0 0 0 0 0 0 0 0 0 0 0 0 0 0 0 0 0 0 0 0 0 0 0 0 0 0
0 0 0 0 0 0 0 0 0 0 0 0 0 0 0 0 0 0 0 0 0 0 0 0 0 0 0 0 0 0 0 0 0 0 0 0 0 0 0 0 0 0 0
0 0 0 0 0 0 0 0 0 0 0 0 0 0 0 0 0 0 0 0 0 0 0 0 0 0 0 0 0 0 0 0 0 0 0 0 0 0 0 0 0 0 0
0 0 0 0 0 0 0 0 0 0 0 0 0 0 0 0 0 0 0 0 0 0 0 0 0 0 0 0 0 0 0 0 0 0 0 0 0 0 0 0 0 0 0
Height
5870 5870 5869 5869 5869 5868 5868 5867 5867 5867 5867 5866 5866 5867 5867 5867 5868 5868 5868 5868 5869 5869 5868 5867 5867 5868 5870 5872 5873 5874 5875 5876 5876 5877 5878 5879 5880 5881 5882 5883 5883 5884 5884
5869 5869 5868 5868 5867 5867 5867 5867 5866 5866 5866 5865 5865 5866 5866 5866 5867 5867 5867 5867 5867 5867 5866 5865 5864 5865 5868 5870 5872 5873 5874 5874 5875 5876 5877 5878 5879 5880 5880 5881 5882 5883 5883
5869 5868 5868 5866 5866 5866 5865 5865 5865 5865 5865 5864 5864 5864 5865 5865 5865 5865 5866 5866 5866 5866 5866 5865 5864 5864 5867 5869 5870 5871 5872 5873 5873 5875 5876 5877 5877 5878 5879 5880 5880 5881 5882
5868 5867 5867 5866 5865 5865 5864 5864 5864 5863 5863 5863 5863 5863 5863 5864 5864 5864 5864 5865 5865 5865 5865 5865 5865 5865 5866 5868 5869 5870 5871 5871 5872 5873 5874 5875 5876 5876 5877 5878 5878 5879 5880
5867 5866 5866 5865 5865 5864 5863 5862 5862 5862 5862 5862 5862 5862 5862 5863 5863 5863 5863 5864 5864 5864 5864 5864 5864 5865 5865 5866 5867 5868 5868 5869 5870 5871 5872 5873 5874 5874 5875 5876 5877 5878 5878
5866 5866 5865 5864 5864 5863 5862 5861 5861 5861 5861 5861 5861 5861 5861 5861 5861 5862 5862 5862 5862 5863 5863 5863 5863 5864 5864 5864 5865 5866 5867 5867 5868 5869 5870 5871 5871 5872 5873 5873 5874 5875 5876
5866 5865 5864 5863 5862 5862 5861 5860 5860 5860 5860 5859 5859 5859 5860 5860 5860 5860 5860 5861 5861 5861 5861 5861 5862 5862 5862 5863 5864 5864 5865 5865 5866 5867 5868 5869 5869 5870 5870 5871 5872 5873 5873
5865 5864 5863 5862 5862 5861 5860 5859 5859 5858 5858 5858 5858 5858 5858 5858 5858 5859 5859 5859 5859 5859 5859 5860 5860 5860 5861 5861 5861 5862 5863 5863 5864 5865 5866 5867 5867 5868 5868 5869 5869 5870 5871
5865 5864 5863 5862 5861 5860 5859 5858 5858 5857 5857 5857 5857 5857 5857 5857 5857 5857 5857 5857 5857 5858 5858 5858 5858 5858 5859 5859 5860 5860 5860 5861 5862 5863 5864 5864 5865 5865 5866 5866 5867 5867 5868
5864 5863 5862 5861 5860 5859 5858 5858 5857 5857 5856 5856 5856 5856 5855 5855 5855 5855 5856 5856 5856 5856 5856 5856 5856 5856 5857 5857 5858 5858 5858 5859 5860 5861 5861 5862 5862 5863 5863 5863 5864 5865 5865
5864 5862 5861 5860 5859 5859 5858 5857 5856 5856 5856 5855 5855 5854 5854 5854 5854 5854 5854 5854 5854 5854 5854 5855 5854 5854 5855 5855 5855 5856 5856 5857 5857 5858 5859 5859 5860 5860 5860 5861 5861 5862 5862
5863 5862 5861 5860 5859 5858 5857 5857 5856 5856 5855 5854 5854 5853 5853 5853 5853 5853 5853 5853 5853 5853 5852 5853 5852 5852 5852 5853 5853 5853 5854 5855 5855 5856 5856 5857 5857 5857 5858 5858 5858 5858 5859
5862 5861 5860 5859 5858 5858 5857 5856 5856 5855 5854 5854 5853 5852 5852 5852 5852 5852 5852 5852 5851 5851 5851 5851 5851 5851 5851 5851 5851 5851 5852 5852 5853 5853 5854 5854 5855 5855 5855 5855 5855 5856 5856
5862 5861 5860 5859 5858 5857 5856 5856 5855 5854 5854 5853 5852 5851 5851 5851 5851 5850 5850 5850 5850 5850 5850 5849 5849 5849 5849 5849 5849 5849 5850 5850 5851 5851 5852 5852 5852 5852 5852 5852 5853 5853 5853
5862 5861 5860 5859 5858 5857 5856 5855 5854 5853 5853 5852 5851 5851 5850 5850 5850 5849 5849 5849 5849 5849 5848 5848 5848 5848 5847 5847 5847 5848 5848 5848 5848 5849 5849 5849 5849 5849 5850 5850 5850 5850 5850
5861 5860 5859 5858 5857 5856 5855 5854 5853 5853 5852 5851 5851 5850 5849 5849 5849 5848 5848 5848 5847 5847 5847 5847 5846 5846 5846 5846 5846 5846 5846 5846 5846 5846 5847 5847 5847 5847 5847 5847 5847 5847 5847
5861 5860 5859 5858 5857 5856 5855 5854 5853 5852 5851 5850 5850 5849 5849 5848 5848 5847 5847 5847 5846 5846 5846 5845 5845 5845 5845 5845 5845 5844 5844 5844 5844 5844 5844 5844 5845 5845 5845 5845 5844 5844 5844
5860 5859 5858 5857 5856 5855 5854 5853 5852 5851 5850 5849 5849 5848 5847 5847 5846 5846 5846 5845 5845 5845 5844 5844 5844 5844 5844 5843 5843 5843 5843 5843 5843 5843 5842 5842 5843 5843 5842 5842 5842 5842 5842
5860 5859 5858 5857 5855 5854 5853 5852 5851 5850 5849 5848 5848 5847 5846 5846 5845 5845 5844 5844 5844 5844 5843 5843 5843 5843 5842 5842 5842 5842 5841 5841 5841 5841 5841 5840 5840 5840 5840 5840 5840 5840 5840
5859 5858 5857 5856 5855 5854 5853 5852 5851 5850 5848 5847 5846 5846 5845 5845 5844 5844 5843 5843 5843 5843 5842 5842 5842 5842 5841 5841 5840 5840 5840 5840 5839 5839 5839 5838 5838 5838 5838 5838 5838 5838 5837
5859 5858 5857 5856 5854 5853 5852 5851 5850 5849 5848 5847 5846 5845 5844 5844 5843 5843 5842 5842 5841 5841 5841 5841 5841 5840 5840 5839 5839 5839 5838 5838 5838 5837 5837 5836 5836 5836 5835 5835 5835 5835 5835
5858 5857 5856 5855 5853 5852 5851 5850 5849 5848 5847 5846 5845 5844 5844 5843 5842 5842 5841 5841 5840 5840 5840 5840 5840 5839 5838 5838 5838 5838 5837 5837 5836 5835 5835 5834 5834 5833 5833 5833 5832 5832 5832
5857 5856 5855 5854 5853 5851 5850 5849 5848 5847 5846 5845 5844 5844 5843 5842 5841 5841 5840 5840 5840 5839 5839 5839 5838 5838 5837 5837 5836 5836 5835 5835 5834 5834 5833 5832 5832 5831 5831 5830 5830 5830 5829
5855 5854 5853 5852 5851 5850 5850 5849 5848 5847 5846 5845 5844 5843 5842 5841 5840 5840 5839 5839 5838 5838 5838 5837 5837 5836 5836 5835 5835 5834 5834 5833 5833 5832 5831 5830 5829 5829 5828 5828 5827 5827 5827
5854 5853 5852 5851 5850 5849 5848 5847 5846 5845 5845 5844 5843 5842 5841 5840 5839 5839 5838 5837 5837 5837 5836 5836 5835 5835 5834 5833 5833 5832 5831 5831 5830 5830 5829 5828 5828 5827 5826 5825 5825 5825 5824
5853 5852 5851 5850 5849 5848 5847 5846 5845 5844 5843 5843 5842 5841 5840 5839 5838 5837 5837 5836 5836 5835 5835 5834 5833 5833 5832 5831 5831 5830 5829 5829 5828 5827 5827 5826 5825 5825 5824 5823 5823 5822 5822
Wind_Speed
4 4 4 4 5 5 5 4 4 4 4 4 4 4 4 4 5 6 6 7 7 7 8 8 9 10 9 9 9 9 9 9 9 8 9 8 8 8 8 8 7 7 7
5 5 6 6 5 5 5 5 5 5 5 5 5 5 5 5 6 7 7 7 8 7 7 8 8 9 10 10 10 10 10 10 10 10 10 10 9 9 9 9 9 9 8
6 6 6 6 5 5 5 5 5 6 6 6 5 5 5 5 6 7 7 7 8 8 7 7 7 8 9 10 10 10 10 10 11 11 10 10 11 11 11 10 10 9 9
6 6 5 6 6 6 6 6 5 5 6 6 6 6 6 6 7 7 7 8 8 8 8 8 7 8 9 10 10 10 11 11 12 12 12 11 11 12 12 11 11 10 10
6 6 5 5 5 5 6 5 5 5 6 6 6 6 7 8 8 8 8 8 8 7 8 8 9 9 9 9 10 11 11 12 12 13 12 12 12 12 13 13 12 11 11
6 6 5 5 5 5 5 5 5 6 6 6 6 6 7 8 8 8 8 8 8 8 9 9 8 8 8 9 10 10 11 11 12 12 12 12 12 13 14 14 14 13 13
6 5 6 5 5 5 6 5 5 6 6 6 6 6 7 7 7 7 7 8 8 8 8 8 8 8 9 10 11 11 11 11 12 12 12 12 12 13 13 14 14 14 13
6 6 6 5 5 6 6 5 5 5 5 5 6 6 6 7 8 8 8 8 8 8 8 8 8 9 10 10 11 11 12 12 12 12 12 13 13 13 13 13 14 14 14
5 6 6 5 5 5 5 5 4 4 4 5 5 5 6 7 8 8 8 8 8 8 7 8 8 9 10 10 10 11 12 12 12 12 12 13 13 13 14 14 14 14 15
5 6 6 6 6 5 5 5 4 4 4 4 5 5 5 6 7 7 8 8 8 8 7 7 8 8 9 9 10 10 10 10 11 12 13 13 13 13 14 14 14 15 15
6 6 6 6 6 5 5 4 4 4 3 4 4 4 5 5 6 6 7 8 8 8 8 8 8 9 9 9 10 10 10 11 12 12 12 12 13 13 13 13 14 15 15
6 7 6 6 6 5 5 5 4 4 3 3 3 3 3 3 4 5 6 7 7 7 8 8 8 9 9 9 9 10 11 11 11 12 12 12 12 12 13 13 14 15 15
6 6 6 6 6 5 5 4 4 4 3 3 3 3 3 3 4 5 6 6 7 7 7 7 8 8 8 9 10 10 10 11 11 11 11 12 12 12 13 13 14 14 15
6 6 6 6 6 5 5 5 5 4 4 3 3 2 2 3 3 4 5 6 6 6 7 7 7 8 8 8 9 9 10 10 11 11 11 12 12 12 13 13 13 14 14
6 6 6 6 6 5 5 5 5 4 3 3 2 2 3 4 4 5 4 5 5 6 6 6 7 7 7 6 7 8 9 9 10 11 11 11 12 12 12 12 13 13 14
5 6 6 6 6 5 5 5 4 4 4 3 3 3 3 4 4 5 5 5 5 5 5 6 6 7 7 7 7 7 8 8 9 10 10 10 11 11 11 11 12 12 13
6 6 6 6 6 5 5 4 4 5 4 4 3 4 4 4 5 5 5 5 6 6 6 6 6 6 7 7 7 8 7 7 7 8 9 10 10 10 10 11 10 12 12
6 6 6 6 6 5 5 4 5 5 5 4 4 4 5 5 5 5 6 5 6 6 5 6 6 6 6 6 6 7 7 7 7 7 7 8 9 10 10 10 9 10 11
5 5 5 6 6 6 6 5 5 5 5 5 4 5 5 5 6 6 5 5 5 5 5 6 6 6 6 6 6 7 7 7 7 8 8 8 9 10 10 10 10 11 11
5 4 5 6 7 7 6 5 5 6 6 5 5 5 5 5 5 5 5 5 5 5 5 5 6 6 6 6 6 6 6 7 7 7 8 9 10 10 10 11 11 11 12
5 5 5 6 7 7 6 6 5 6 6 5 5 4 4 4 4 4 4 4 5 5 5 5 6 6 6 5 5 6 6 7 8 7 8 9 10 10 10 11 10 11 11
5 5 6 6 6 7 7 6 5 5 5 5 4 4 4 5 5 5 4 4 4 5 5 5 6 6 6 5 6 6 6 6 8 8 8 8 9 10 10 10 10 10 11
6 6 7 7 7 7 7 6 5 4 5 4 4 4 5 5 5 5 4 4 5 5 5 6 6 6 6 6 7 7 7 7 7 8 9 9 10 10 10 11 11 11 11
6 7 7 7 7 7 7 7 6 5 5 5 4 5 5 5 5 5 5 5 5 6 6 6 7 7 7 7 8 8 8 8 9 9 10 10 10 10 10 10 11 11 11
7 7 7 7 8 8 8 7 6 6 5 5 5 5 6 5 5 5 5 6 6 6 6 7 7 8 8 8 8 8 9 9 10 10 10 10 10 10 9 9 9 10 10
7 7 7 7 7 7 7 7 7 6 5 5 6 6 6 6 6 5 5 6 6 6 6 7 8 8 9 9 9 10 10 10 10 10 9 10 10 10 10 10 10 9 10
Wind_Direction
329 322 311 316 311 304 305 307 307 300 293 289 277 271 266 261 260 259 266 263 263 266 274 271 257 244 242 244 242 238 236 231 225 226 228 230 229 230 232 232 232 233 232
321 319 316 310 311 307 300 294 293 295 292 288 281 274 273 269 264 265 263 262 264 265 272 273 260 243 238 241 244 240 238 237 235 233 237 235 234 235 236 237 236 235 239
321 320 316 306 307 308 301 291 290 291 287 285 284 277 271 273 271 272 263 265 265 263 268 268 255 242 241 244 245 244 242 242 241 237 238 238 238 239 240 238 237 237 241
320 319 314 311 312 311 302 287 287 284 285 285 282 272 270 271 272 269 260 263 264 264 270 268 260 253 247 246 248 247 245 247 245 242 244 242 242 244 244 238 238 242 244
319 315 317 314 314 313 307 292 284 287 291 291 285 276 270 268 270 269 264 264 264 262 262 262 261 255 247 246 248 249 249 248 250 247 244 244 245 247 247 242 241 246 247
329 321 318 315 313 313 309 300 286 285 289 285 280 273 269 266 266 270 267 265 264 267 267 259 253 247 246 245 246 249 248 250 250 250 246 246 247 247 248 247 245 248 250
340 336 330 325 319 312 307 304 301 290 286 280 279 271 268 267 265 263 268 263 259 260 267 260 249 248 251 249 248 249 251 250 249 248 246 246 251 254 251 248 248 250 252
343 341 338 333 326 317 310 305 301 294 293 290 284 275 266 265 263 264 263 263 260 260 266 263 249 250 252 249 245 248 250 253 253 251 249 250 252 254 251 251 249 250 251
339 336 337 332 330 326 320 320 314 304 297 293 285 276 263 264 266 264 262 267 266 260 265 261 252 253 250 248 247 247 248 253 256 253 252 252 252 253 251 253 254 253 255
341 342 343 339 335 335 333 327 325 316 307 293 283 283 273 264 263 267 265 265 267 265 262 261 257 253 250 249 250 251 252 254 254 252 256 257 256 255 254 253 256 257 257
345 343 340 336 335 336 340 339 333 325 318 301 292 287 273 267 266 267 267 265 264 267 268 263 256 253 253 253 256 255 256 258 257 254 253 254 256 258 258 259 260 259 257
344 343 339 339 339 340 342 340 334 328 321 313 308 291 273 269 268 267 267 267 266 271 273 268 259 259 258 258 257 257 256 259 259 255 251 251 254 258 261 262 264 262 259
344 347 348 344 343 341 334 330 324 318 311 306 313 312 298 286 281 273 268 265 266 270 271 267 261 260 258 256 258 260 260 261 259 254 253 255 256 258 261 263 264 264 262
347 347 345 344 343 342 339 331 326 314 309 308 310 318 314 306 300 287 277 266 269 271 274 271 265 261 257 256 260 262 261 259 257 256 255 257 258 259 262 264 264 264 263
347 348 344 343 341 339 339 331 331 321 304 302 312 315 311 305 303 296 290 278 270 269 271 276 277 275 268 264 261 261 262 258 257 257 258 259 262 262 261 262 262 263 262
344 347 344 342 343 342 336 336 334 328 310 306 309 312 313 307 306 304 293 290 281 277 275 280 282 283 277 268 266 269 269 262 258 260 259 262 264 263 262 263 262 262 263
344 344 342 344 345 342 339 337 337 335 325 312 309 309 310 308 306 302 299 290 287 284 281 280 281 284 279 276 274 273 273 267 268 266 261 262 265 266 267 265 265 264 265
336 341 345 351 352 352 346 346 343 341 330 311 307 307 306 302 300 295 294 287 286 288 287 285 283 284 280 278 277 277 280 278 275 273 270 268 270 269 270 267 269 269 266
329 339 344 346 350 351 351 350 344 343 339 320 305 305 306 303 299 296 291 288 285 285 291 289 284 286 285 278 278 280 278 277 276 277 279 275 272 271 270 267 267 269 269
330 335 336 335 342 343 342 341 344 348 345 333 314 306 312 309 302 298 293 288 281 281 288 292 287 290 293 287 279 281 279 276 280 277 276 274 271 271 269 269 269 269 269
325 327 329 330 336 338 334 337 342 343 343 338 322 315 313 308 304 300 295 292 285 282 283 287 294 297 294 290 285 283 282 275 275 273 273 272 272 272 270 269 270 270 270
320 326 330 333 336 339 336 336 336 336 339 337 324 321 316 311 306 299 292 292 288 286 286 291 298 298 300 294 288 286 286 283 279 276 275 274 275 274 271 272 275 274 272
318 320 322 325 329 334 334 332 326 332 334 331 325 318 315 311 306 299 290 285 285 285 288 293 297 296 295 293 289 285 289 292 292 287 281 277 278 277 276 275 276 275 276
316 316 316 320 322 325 329 327 324 320 322 320 317 308 308 311 308 296 292 292 292 289 291 293 292 294 294 290 287 289 289 289 291 288 285 283 285 283 282 280 279 279 277
314 316 316 318 320 321 326 327 324 319 319 323 327 325 322 322 316 307 298 300 298 296 297 295 292 290 293 289 286 291 293 294 293 289 286 283 284 283 284 285 283 279 278
308 312 315 315 317 319 323 326 320 315 315 319 322 321 318 318 314 309 302 297 294 293 296 298 294 290 291 293 289 290 291 291 293 292 291 287 286 285 288 290 289 285 282